STARLINK-31239, 60093

Orbit data source: Space-Track

STARLINK-31239, 60093 is a payload satellite owned by SpaceX/Seattle (US) in LEO that was launched on Sun, 23 Jun 2024 UTC via an FALCON 9 launch vehicle from the Air Force Eastern Test Range (AFETR). Payload-class satellites include a variety of spacecraft equipped with specific instruments for various scientific and technological missions. These include communications satellites like Starlink; space stations such as the ISS; scientific satellites like the Hubble; Earth observation satellites from companies like Planet Labs, Umbra, and HawkEye 360; GPS; miniature CubeSats for education and research; and military/defense satellites.

Loading next visibility...
Identifier
60093, 2024-117C
Orbit
LEO
Country
Flag of USUS
Related business
Manufacturer
SpaceX/Seattle
Mission
Operational Commercial Communications
Bus & Motor
STARLINK V2M, Unknown motor
Mass
730 kg wet, ~700 kg dry
Launch date (UTC)
2024-06-23 (2 years ago)
Launch vehicle
FALCON 9
Launch site
Air Force Eastern Test Range (AFETR)
Object type
Payload
Rocket body
Debris
Shape & HBR
Box + 2 Pan, 17.7 m
Radar Cross Section
33.884 m², Large (>1 m²)

Expand to show TLE details & history
Last TLE update: 1 day ago

TLE from 1 day ago
0 STARLINK-31239
1 60093U 24117C   26170.71768330  .00059334  00000-0  19712-2 0  9990
2 60093  53.1607 283.4830 0001659 125.0321 235.0836 15.30660935112509
Epoch: 2026-06-19T17:13Z
TLE epoch observation values (Epoch: 2026-06-19T17:13:27.837Z)
Latitude
0.00001°
Longitude
117.17437°
Altitude
475.39 km
Speed
7.629 km/s
True Right ascension
18h 53m 55s
True Declination
0° 00' 00"
Sunlit
Object was in full shadow at epoch
Visualization orbit readout
Latitude
Unknown
Longitude
Unknown
Altitude
Unknown
Speed
Unknown
Apparent Right ascension
Unknown
Apparent Declination
Unknown
Sunlit
N/A
Visualization observer readout
Local Sidereal Time
07:13:34
Azimuth
Unknown
Elevation
Unknown
Doppler factor
Unknown
Orbital elements
Apogee altitude
475.232 km
Perigee altitude
472.959 km
Semi-major axis
6,852.233 km
Eccentricity
0.00017
Inclination
53.1607°
RAAN
283.483°
Arg. of periapsis
125.0321°
True anomaly
235.06801°
Mean anomaly
235.0836°
Eccentric anomaly
235.07581°
Mean motion
3.82644 °/min
Orbital period
94.08 mins
BSTAR
0.0019712
Loading maneuver chart data...
Computing Atmospheric mass density...
Loading historical data...
Loading historical data...
Loading historical data...
Loading historical data...
Loading historical data...
Loading historical data...
Loading historical data...

Documentation

Showing up to 5 results
|